Weather observations for the past three days for
Baltimore, Inner Harbor
| Date | Time (edt) | Wind (mph) | Vis. (mi.) | Weather | Sky Cond. | Temperature (ºF) | Relative Humidity | Wind Chill (°F) | Heat Index (°F) | Pressure | Precipitation (in) | ||||||
|---|---|---|---|---|---|---|---|---|---|---|---|---|---|---|---|---|---|
| Air | Dwpt | 6 hour | altimeter (in) | sea level (mb) | 1 hr | 3 hr | 6 hr | ||||||||||
| Max. | Min. | ||||||||||||||||
| 07 | 07:53 | Calm | 0.00 | NULL | NULL | 55 | 37.9 | 57.9 | 54 | 53% | 29.91 | 1012.9 | 0.01 | ||||
| 07 | 06:53 | Calm | 0.00 | NULL | NULL | 55 | 39 | 55% | 29.89 | 1012.2 | |||||||
| 07 | 05:53 | Calm | 0.00 | NULL | NULL | 55 | 45 | 69% | 29.88 | 1011.8 | 0.01 | ||||||
| 07 | 04:53 | Calm | 0.00 | NULL | NULL | 55 | 48.9 | 80% | 29.87 | 1011.6 | |||||||
| 07 | 03:53 | Calm | 0.00 | NULL | NULL | 55 | 48.9 | 80% | 29.85 | 1010.6 | |||||||
| 07 | 02:53 | Calm | 0.00 | NULL | NULL | 57 | 51.1 | 81% | 29.86 | 1011.0 | |||||||
| 07 | 01:53 | Calm | 0.00 | NULL | NULL | 57.9 | 53.1 | 70 | 57 | 84% | 29.85 | 1010.6 | 0.13 | 0.14 | |||
| 07 | 00:53 | Calm | 0.00 | NULL | NULL | 60.1 | 55 | 84% | 29.85 | 1010.9 | 0.01 | ||||||
| 06 | 23:53 | Calm | 0.00 | NULL | NULL | 64 | 54 | 70% | 29.83 | 1010.0 | |||||||
| 06 | 22:53 | Calm | 0.00 | NULL | NULL | 66 | 55 | 68% | 29.82 | 1009.6 | |||||||
| 06 | 21:53 | Calm | 0.00 | NULL | NULL | 69.1 | 60.1 | 73% | 29.8 | 1009.1 | |||||||
| 06 | 20:53 | Calm | 0.00 | NULL | NULL | 70 | 60.1 | 71% | 29.8 | 1009.0 | |||||||
| 06 | 19:53 | Calm | 0.00 | NULL | NULL | 70 | 60.1 | 72 | 66.9 | 71% | 29.79 | 1008.7 | |||||
| 06 | 18:53 | Calm | 0.00 | NULL | NULL | 71.1 | 60.1 | 68% | 29.77 | 1008.0 | |||||||
| 06 | 17:53 | Calm | 0.00 | NULL | NULL | 72 | 60.1 | 66% | 29.77 | 1008.2 | |||||||
| 06 | 16:53 | Calm | 0.00 | NULL | NULL | 71.1 | 59 | 66% | 29.76 | 1007.6 | |||||||
| 06 | 15:53 | Calm | 0.00 | NULL | NULL | 72 | 60.1 | 66% | 29.76 | 1007.8 | |||||||
| 06 | 14:53 | Calm | 0.00 | NULL | NULL | 69.1 | 59 | 70% | 29.78 | 1008.6 | |||||||
| 06 | 13:53 | Calm | 0.00 | NULL | NULL | 66.9 | 57.9 | 66.9 | 62.1 | 73% | 29.8 | 1009.1 | 0.09 | ||||
| 06 | 12:53 | Calm | 0.00 | NULL | NULL | 64.9 | 59 | 81% | 29.8 | 1009.1 | |||||||
| 06 | 11:53 | Calm | 0.00 | NULL | NULL | 63 | 59 | 87% | 29.82 | 1009.7 | 0.01 | ||||||
| 06 | 10:53 | Calm | 0.00 | NULL | NULL | 63 | 59 | 87% | 29.83 | 1010.2 | 0.06 | 0.08 | |||||
| 06 | 09:53 | Calm | 0.00 | NULL | NULL | 64 | 59 | 84% | 29.84 | 1010.4 | 0.02 | ||||||
| 06 | 08:53 | Calm | 0.00 | NULL | NULL | 66 | 57 | 73% | 29.82 | 1009.8 | |||||||
| 06 | 07:53 | Calm | 0.00 | NULL | NULL | 66.9 | 55 | 73 | 66.9 | 66% | 29.84 | 1010.3 | |||||
| 06 | 06:53 | Calm | 0.00 | NULL | NULL | 66.9 | 55 | 66% | 29.82 | 1009.6 | |||||||
| 06 | 05:53 | Calm | 0.00 | NULL | NULL | 66.9 | 54 | 63% | 29.81 | 1009.4 | |||||||
| 06 | 04:53 | Calm | 0.00 | NULL | NULL | 68 | 54 | 61% | 29.82 | 1009.7 | |||||||
| 06 | 03:53 | Calm | 0.00 | NULL | NULL | 70 | 53.1 | 55% | 29.82 | 1009.6 | |||||||
| 06 | 02:53 | Calm | 0.00 | NULL | NULL | 72 | 52 | 50% | 29.82 | 1009.9 | |||||||
| 06 | 01:53 | Calm | 0.00 | NULL | NULL | 73 | 51.1 | 81 | 73 | 46% | 29.83 | 1010.1 | |||||
| 06 | 00:53 | Calm | 0.00 | NULL | NULL | 75 | 50 | 42% | 78 | 29.84 | 1010.3 | ||||||
| 05 | 23:53 | Calm | 0.00 | NULL | NULL | 75 | 48.9 | 40% | 77 | 29.84 | 1010.3 | ||||||
| 05 | 22:53 | Calm | 0.00 | NULL | NULL | 75 | 45 | 34% | 77 | 29.84 | 1010.3 | ||||||
| 05 | 21:53 | Calm | 0.00 | NULL | NULL | 77 | 43 | 30% | 78 | 29.84 | 1010.3 | ||||||
| 05 | 20:53 | Calm | 0.00 | NULL | NULL | 78.1 | 41 | 27% | 78 | 29.82 | 1009.6 | ||||||
| 05 | 19:53 | Calm | 0.00 | NULL | NULL | 81 | 39 | 87.1 | 81 | 22% | 79 | 29.8 | 1009.1 | ||||
| 05 | 18:53 | Calm | 0.00 | NULL | NULL | 82.9 | 39 | 21% | 81 | 29.8 | 1009.0 | ||||||
| 05 | 17:53 | Calm | 0.00 | NULL | NULL | 84 | 39 | 20% | 81 | 29.8 | 1008.9 | ||||||
| 05 | 16:53 | Calm | 0.00 | NULL | NULL | 84.9 | 39 | 20% | 82 | 29.79 | 1008.6 | ||||||
| 05 | 15:53 | Calm | 0.00 | NULL | NULL | 86 | 41 | 20% | 83 | 29.8 | 1008.9 | ||||||
| 05 | 14:53 | Calm | 0.00 | NULL | NULL | 84.9 | 41 | 21% | 82 | 29.81 | 1009.6 | ||||||
| 05 | 13:53 | Calm | 0.00 | NULL | NULL | 84 | 39.9 | 84 | 64 | 21% | 81 | 29.84 | 1010.4 | ||||
| 05 | 12:53 | Calm | 0.00 | NULL | NULL | 81 | 43 | 26% | 80 | 29.86 | 1011.0 | ||||||
| 05 | 11:53 | Calm | 0.00 | NULL | NULL | 79 | 46.9 | 32% | 79 | 29.88 | 1011.8 | ||||||
| 05 | 10:53 | Calm | 0.00 | NULL | NULL | 77 | 46.9 | 35% | 78 | 29.88 | 1011.9 | ||||||
| 05 | 09:53 | Calm | 0.00 | NULL | NULL | 72 | 46 | 40% | 29.88 | 1011.8 | |||||||
| 05 | 08:53 | Calm | 0.00 | NULL | NULL | 69.1 | 45 | 42% | 29.9 | 1012.4 | |||||||
| 05 | 07:53 | Calm | 0.00 | NULL | NULL | 64 | 46 | 64 | 57.9 | 52% | 29.89 | 1012.1 | |||||
| 05 | 06:53 | Calm | 0.00 | NULL | NULL | 62.1 | 45 | 54% | 29.88 | 1011.6 | |||||||
| 05 | 05:53 | Calm | 0.00 | NULL | NULL | 59 | 45 | 60% | 29.86 | 1011.0 | |||||||
| 05 | 04:53 | Calm | 0.00 | NULL | NULL | 61 | 44.1 | 54% | 29.86 | 1010.9 | |||||||
| 05 | 03:53 | Calm | 0.00 | NULL | NULL | 59 | 45 | 60% | 29.86 | 1011.0 | |||||||
| 05 | 02:53 | Calm | 0.00 | NULL | NULL | 59 | 45 | 60% | 29.85 | 1010.7 | |||||||
| 05 | 01:53 | Calm | 0.00 | NULL | NULL | 62.1 | 44.1 | 69.1 | 60.1 | 52% | 29.85 | 1010.7 | |||||
| 05 | 00:53 | Calm | 0.00 | NULL | NULL | 61 | 44.1 | 54% | 29.85 | 1010.9 | |||||||
| 04 | 23:53 | Calm | 0.00 | NULL | NULL | 63 | 44.1 | 50% | 29.85 | 1010.6 | |||||||
| 04 | 22:53 | Calm | 0.00 | NULL | NULL | 66.9 | 43 | 42% | 29.85 | 1010.6 | |||||||
| 04 | 21:53 | Calm | 0.00 | NULL | NULL | 66.9 | 44.1 | 44% | 29.84 | 1010.6 | |||||||
| 04 | 20:53 | Calm | 0.00 | NULL | NULL | 66.9 | 45 | 45% | 29.83 | 1010.1 | |||||||
| 04 | 19:53 | Calm | 0.00 | NULL | NULL | 69.1 | 43 | 78.1 | 69.1 | 39% | 29.83 | 1009.9 | |||||
| 04 | 18:53 | Calm | 0.00 | NULL | NULL | 72 | 43 | 35% | 29.83 | 1010.0 | |||||||
| 04 | 17:53 | Calm | 0.00 | NULL | NULL | 75.9 | 41 | 29% | 77 | 29.82 | 1009.7 | ||||||
| 04 | 16:53 | Calm | 0.00 | NULL | NULL | 77 | 37.9 | 24% | 77 | 29.82 | 1009.7 | ||||||
| 04 | 15:53 | Calm | 0.00 | NULL | NULL | 77 | 37.9 | 24% | 77 | 29.84 | 1010.4 | ||||||
| 04 | 14:53 | Calm | 0.00 | NULL | NULL | 75.9 | 36 | 23% | 77 | 29.87 | 1011.4 | ||||||
| 04 | 13:53 | Calm | 0.00 | NULL | NULL | 73 | 39.9 | 73 | 54 | 30% | 29.9 | 1012.3 | |||||
| 04 | 12:53 | Calm | 0.00 | NULL | NULL | 71.1 | 36 | 28% | 29.91 | 1012.9 | |||||||
| 04 | 11:53 | Calm | 0.00 | NULL | NULL | 69.1 | 34 | 27% | 29.94 | 1013.7 | |||||||
| 04 | 10:53 | Calm | 0.00 | NULL | NULL | 66.9 | 37.9 | 35% | 29.95 | 1014.2 | |||||||
| 04 | 09:53 | Calm | 0.00 | NULL | NULL | 62.1 | 35.1 | 37% | 29.96 | 1014.5 | |||||||
| 04 | 08:53 | Calm | 0.00 | NULL | NULL | 57.9 | 36 | 44% | 29.97 | 1014.8 | |||||||
| Date | Time (edt) | Wind (mph) | Vis. (mi.) | Weather | Sky Cond. | Air | Dwpt | Max. | Min. | Relative Humidity | Wind Chill (°F) | Heat Index (°F) | altimeter (in) | sea level (mb) | 1 hr | 3 hr | 6 hr |
| 6 hour | |||||||||||||||||
| Temperature (ºF) | Pressure | Precipitation (in) | |||||||||||||||